Location: *
(49.6619°S, 177.4603°W)
Time: 05:04:32
(UTC+00:00)

SAR-Lupe-4 - Pass Details

Date: 31 January 2023
Orbit: 479 x 483 km, 98.1° (Epoch: 16 August)

Event Time Altitude Azimuth Distance (km) Brightness Sun altitude
Exits shadow 10:03:21 36° 77° (ENE) 800 4.3 -17.9°
Maximum altitude 10:04:07 41° 111° (ESE) 724 4.3 -18.0°
Drops below altitude 10° 10:07:34 10° 181° (S) 1,697 7.2 -18.2°
Sets 10:09:44 0° 188° (S) 2,586 8.6 -18.4°
